This is the latest recevied weather packets stored in our database for station/object K6TTR. If no packets are shown the sender has not sent any weather packets the latest 10 day(s).
| Time | Temp. | Humidity | Pressure | Rain* | Wind** | Luminosity | Snow |
|---|---|---|---|---|---|---|---|
| 1777492715 | 16.11° C | 41% | 1020.1 hPa | 0 mm | - | 1009 W/m² | - |
| 1777492420 | 16.11° C | 40% | 1020.1 hPa | 0 mm | - | 1004 W/m² | - |
| 1777492125 | 15.56° C | 42% | 1020.1 hPa | 0 mm | - | 1002 W/m² | - |
| 1777491829 | 15.56° C | 42% | 1020.2 hPa | 0 mm | - | 998 W/m² | - |
| 1777491513 | 15.56° C | 43% | 1020.4 hPa | 0 mm | - | 995 W/m² | - |
| 1777491217 | 15.56° C | 42% | 1020.5 hPa | 0 mm | - | 995 W/m² | - |
| 1777490921 | 15.56° C | 43% | 1020.5 hPa | 0 mm | - | 990 W/m² | - |
| 1777490621 | 15° C | 41% | 1020.4 hPa | 0 mm | - | 984 W/m² | - |
| 1777490327 | 15° C | 38% | 1020.6 hPa | 0 mm | - | 981 W/m² | - |
| 1777490031 | 14.44° C | 41% | 1020.6 hPa | 0 mm | - | 988 W/m² | - |
| 1777489715 | 14.44° C | 40% | 1020.7 hPa | 0 mm | - | 979 W/m² | - |
| 1777489420 | 14.44° C | 40% | 1020.7 hPa | 0 mm | - | 976 W/m² | - |
| 1777489126 | 14.44° C | 43% | 1020.9 hPa | 0 mm | - | 981 W/m² | - |
| 1777488831 | 15° C | 44% | 1020.9 hPa | 0 mm | - | 979 W/m² | - |
| 1777488516 | 14.44° C | 46% | 1021 hPa | 0 mm | - | 984 W/m² | - |
| 1777488219 | 14.44° C | 49% | 1020.9 hPa | 0 mm | - | 967 W/m² | - |
| 1777487922 | 13.89° C | 50% | 1020.9 hPa | 0 mm | - | 976 W/m² | - |
| 1777487626 | 13.89° C | 52% | 1020.9 hPa | 0 mm | - | 944 W/m² | - |
| 1777487328 | 13.33° C | 54% | 1021 hPa | 0 mm | - | 937 W/m² | - |
| 1777487015 | 13.33° C | 54% | 1021 hPa | 0 mm | - | 928 W/m² | - |
| 1777486721 | 13.33° C | 55% | 1021.1 hPa | 0 mm | - | 916 W/m² | - |
| 1777486427 | 13.33° C | 55% | 1021.2 hPa | 0 mm | - | 900 W/m² | - |
| 1777486112 | 12.78° C | 58% | 1021.2 hPa | 0 mm | - | 886 W/m² | - |
| 1777485819 | 12.78° C | 57% | 1021.2 hPa | 0 mm | - | 868 W/m² | - |
| 1777485523 | 12.78° C | 56% | 1021.2 hPa | 0 mm | - | 858 W/m² | - |
* Rain latest hour (hover to see other rain measurements)
** Current wind speed in m/s (hover to see current wind gust speed)